This is the latest recevied weather packets stored in our database for station/object WD4ITN. If no packets are shown the sender has not sent any weather packets the latest 10 day(s).
| Time | Temp. | Humidity | Pressure | Rain* | Wind** | Luminosity | Snow |
|---|---|---|---|---|---|---|---|
| 1787857112 | 27.22° C | 70% | 1015.9 hPa | 0 mm | - | - | - |
| 1787856815 | 27.78° C | 68% | 1016.1 hPa | 0 mm | - | - | - |
| 1787856509 | 27.78° C | 67% | 1016.1 hPa | 0 mm | - | - | - |
| 1787856206 | 27.78° C | 68% | 1016.1 hPa | 0 mm | - | - | - |
| 1787855902 | 27.78° C | 68% | 1016.2 hPa | 0 mm | - | - | - |
| 1787855600 | 27.78° C | 73% | 1016.3 hPa | 0 mm | - | - | - |
| 1787855295 | 27.78° C | 72% | 1016.2 hPa | 0 mm | - | - | - |
| 1787855011 | 27.22° C | 69% | 1016.3 hPa | 0 mm | - | - | - |
| 1787854707 | 27.22° C | 69% | 1016.3 hPa | 0 mm | - | - | - |
| 1787854405 | 27.22° C | 70% | 1016.4 hPa | 0 mm | - | - | - |
| 1787853795 | 27.22° C | 72% | 1016.4 hPa | 0 mm | - | - | - |
| 1787853510 | 27.22° C | 70% | 1016.4 hPa | 0 mm | - | - | - |
| 1787853210 | 27.22° C | 72% | 1016.6 hPa | 0 mm | - | - | - |
| 1787852894 | 27.22° C | 71% | 1016.6 hPa | 0 mm | - | - | - |
| 1787852614 | 26.67° C | 72% | 1016.6 hPa | 0 mm | - | - | - |
| 1787852301 | 26.67° C | 73% | 1016.6 hPa | 0 mm | - | - | - |
| 1787851998 | 26.67° C | 74% | 1016.6 hPa | 0 mm | - | - | - |
| 1787851700 | 26.67° C | 72% | 1016.5 hPa | 0 mm | - | - | - |
| 1787851402 | 26.67° C | 72% | 1016.7 hPa | 0 mm | - | - | - |
| 1787851092 | 26.67° C | 72% | 1016.7 hPa | 0 mm | - | - | - |
| 1787850795 | 26.67° C | 74% | 1016.8 hPa | 0 mm | - | - | - |
| 1787850510 | 26.67° C | 72% | 1016.8 hPa | 0 mm | - | - | - |
| 1787850194 | 26.67° C | 73% | 1016.9 hPa | 0 mm | - | - | - |
| 1787849914 | 26.11° C | 75% | 1016.9 hPa | 0 mm | - | - | - |
| 1787849617 | 26.11° C | 76% | 1017 hPa | 0 mm | - | - | - |
* Rain since midnight (hover to see other rain measurements)
** Current wind speed in m/s (hover to see current wind gust speed)